DK8RG-15 Weather Reports


time (UTC)temp
C
wind
direction
speed
KPH
gust
KPH
rain 1hr
cm
rain 24hr
cm
rain mn
cm
humidity
%
barometer
mb
20260506014020 12 0.0 0.0 0.00 1.70 0.00 86 1001.9
20260506013019 12 0.0 0.0 0.00 1.70 0.00 86 1001.9
20260506012019 12 0.0 0.0 0.00 1.70 0.00 86 1001.9
20260506011019 12 344 1.6 1.6 0.00 1.70 0.00 85 1001.8
20260506010019 12 316 1.6 1.6 0.00 1.70 0.00 86 1002.8
20260506005019 12 0.0 0.0 0.00 1.70 0.00 87 1002.8
20260506004019 12 0.0 0.0 0.00 1.70 0.00 88 1002.8
20260506003019 11 0.0 0.0 0.00 1.70 0.00 88 1002.7
20260506002020 11 0.0 0.0 0.00 1.70 0.00 88 1002.7
20260506001020 11 0.0 0.0 0.00 1.70 0.00 89 1002.7
20260506000020 11 0.0 0.0 0.00 1.70 0.00 89 1002.7
20260505235020 11 0.0 0.0 0.00 1.70 0.00 89 1002.6
20260505234019 11 0.0 0.0 0.00 1.70 0.00 89 1002.7
20260505233019 11 0.0 0.0 0.00 1.70 0.00 89 1002.6
20260505232019 11 0.0 0.0 0.00 1.70 0.00 89 1002.6
20260505231020 11 0.0 0.0 0.00 1.70 0.00 89 1002.6
20260505230020 11 0.0 0.0 0.00 1.70 0.00 89 1002.6
20260505225019 11 0.0 0.0 0.00 1.70 0.00 89 1002.5
20260505224020 11 0.0 0.0 0.00 1.70 0.00 89 1002.5
20260505223019 11 0.0 0.0 0.10 1.70 0.00
20260505220038 11 0.0 0.0 0.41 1.70 1.70 89 1003.5
20260505215016 11 0.0 0.0 0.41 1.70 1.70 89 1003.5
20260505214017 11 0.0 0.0 0.51 1.70 1.70 89 1003.5
20260505213019 11 0.0 0.0 0.51 1.60 1.60
20260505212016 11 0.0 0.0 0.51 1.60 1.60 89 1003.5
20260505211016 11 0.0 0.0 0.51 1.50 1.50 88 1002.5
20260505210016 11 0.0 0.0 0.41 1.30 1.30
20260505205015 11 0.0 0.0 0.51 1.30 1.30 88 1003.5
20260505204016 11 0.0 0.0 0.51 1.19 1.19 88 1003.5
20260505203016 11 0.0 0.0 0.69 1.09 1.09 88 1003.4
20260505202017 11 0.0 0.0 0.89 1.09 1.09 87 1003.5
20260505201017 12 0.0 0.0 0.81 0.99 0.99 87 1003.5
20260505200016 12 0.0 0.0 0.71 0.89 0.89 86 1004.4
20260505195016 12 0.0 0.0 0.61 0.81 0.81 85 1004.4
20260505194017 12 213 1.6 1.6 0.51 0.71 0.71 84 1004.3
20260505193016 12 255 8.0 8.0 0.20 0.41 0.41 82 1004.3
20260505192016 14 228 4.8 4.8 0.00 0.20 0.20 80 1003.5
20260505191017 15 262 4.8 4.8 0.00 0.20 0.20 78 1003.2
20260505190017 15 244 1.6 1.6 0.00 0.20 0.20 76 1002.5
20260505185025 15 210 1.6 1.6 0.00 0.20 0.20 75 1002.6
20260505184016 16 237 1.6 1.6 0.00 0.20 0.20 74 1002.6
20260505183016 16 222 1.6 1.6 0.00 0.20 0.20 73 1002.6
20260505182017 16 180 1.6 1.6 0.00 0.20 0.20 73 1002.6
20260505181016 16 0.0 0.0 0.00 0.20 0.20 73 1002.6
20260505180016 16 0.0 0.0 0.00 0.20 0.20 71 1002.6
20260505175016 16 0.0 0.0 0.00 0.20 0.20 70 1002.6
20260505174016 17 0.0 0.0 0.00 0.20 0.20 69 1002.6
20260505173016 17 159 1.6 1.6 0.00 0.20 0.20 68 1002.6
20260505172015 17 0.0 0.0 0.00 0.20 0.20 68 1002.6
20260505171016 17 203 6.4 6.4 0.00 0.20 0.20 67 1002.6
20260505170016 17 179 6.4 6.4 0.00 0.20 0.20 67 1002.6
20260505165016 17 169 1.6 1.6 0.00 0.20 0.20 68 1003.7
20260505164016 17 0.0 0.0 0.00 0.20 0.20 67 1003.7
20260505163016 17 170 1.6 1.6 0.00 0.20 0.20 66 1003.7
20260505162016 17 215 1.6 1.6 0.00 0.20 0.20 66 1003.7
20260505161016 17 259 3.2 3.2 0.00 0.20 0.20 66 1003.7
20260505153017 18 304 1.6 1.6 0.00 0.20 0.20 67 1003.8
20260505152016 17 320 1.6 1.6 0.00 0.20 0.20 67 1003.7
20260505151017 18 353 1.6 1.6 0.00 0.20 0.20 66 1003.8
20260505125016 19 307 3.2 3.2 0.00 0.20 0.20 65 1005.0
20260505124016 19 342 3.2 3.2 0.00 0.20 0.20 65 1005.0
20260505123017 18 301 3.2 3.2 0.00 0.20 0.20 66 1005.9
20260505122016 18 319 3.2 3.2 0.00 0.20 0.20 67 1005.9
20260505121016 18 4 1.6 1.6 0.00 0.20 0.20 67 1005.9
20260505120016 18 346 1.6 1.6 0.00 0.20 0.20 67 1005.9
20260505115017 18 313 1.6 1.6 0.00 0.20 0.20 69 1005.9
20260505114017 18 350 1.6 1.6 0.00 0.20 0.20 69 1006.0
20260505113017 18 327 1.6 1.6 0.00 0.20 0.20 70 1006.0
20260505112017 18 282 1.6 1.6 0.00 0.20 0.20 70 1006.0
20260505111016 18 268 1.6 1.6 0.00 0.20 0.20 70 1006.0
20260505102017 16 0.0 0.0 0.00 0.20 0.20 77 1006.8
20260505101018 16 0.0 0.0 0.00 0.20 0.20 77 1006.8
20260505100017 16 218 1.6 1.6 0.00 0.20 0.20 76 1006.8
20260505095017 16 183 1.6 1.6 0.00 0.20 0.20 76 1006.8
20260505094017 16 0.0 0.0 0.00 0.20 0.20 76 1006.8
20260505093017 16 0.0 0.0 0.00 0.20 0.20 77 1006.9
20260505092017 16 0.0 0.0 0.00 0.20 0.20 77 1006.9
20260505091017 16 0.0 0.0 0.00 0.20 0.20 77 1006.9
20260505090016 16 0.0 0.0 0.00 0.20 0.20 76 1006.9
20260505085017 16 0.0 0.0 0.00 0.20 0.20 78 1006.9
20260505084017 15 172 1.6 1.6 0.00 0.20 0.20 78 1006.8
20260505083018 15 0.0 0.0 0.00 0.20 0.20 80 1006.7
20260505082017 15 0.0 0.0 0.00 0.20 0.20 82 1006.8
20260505081017 14 0.0 0.0 0.00 0.20 0.20 83 1006.7
20260505080017 13 0.0 0.0 0.00 0.20 0.20 85 1006.7
20260505075018 13 0.0 0.0 0.00 0.20 0.20 87 1006.6
20260505074019 12 0.0 0.0 0.00 0.20 0.20 87 1006.6
20260505073019 12 0.0 0.0 0.00 0.20 0.20 87 1006.6
20260505072019 12 0.0 0.0 0.00 0.20 0.20 87 1006.7
20260505071019 8 0.0 0.0 0.00 0.20 0.20 58 1006.3
20260505064019 12 0.0 0.0 0.00 0.20 0.20 88 1006.7
20260505063019 12 0.0 0.0 0.10 0.20 0.20 87 1006.7
20260505062019 12 0.0 0.0 0.10 0.20 0.20 87 1006.8
20260505061019 12 0.0 0.0 0.10 0.20 0.20 87 1007.7
20260505060018 12 0.0 0.0 0.10 0.20 0.20 87 1007.7
20260505055019 12 0.0 0.0 0.10 0.20 0.20 87 1007.7
20260505054020 12 0.0 0.0 0.20 0.20 0.20 87 1007.7
20260505053020 12 0.0 0.0 0.10 0.10 0.10 86 1007.8
20260505052020 12 0.0 0.0 0.10 0.10 0.10 86 1007.8
20260505051018 12 0.0 0.0 0.10 0.10 0.10 86 1007.8
20260505041019 12 0.0 0.0 0.00 0.00 0.00 82 1008.0
20260505040021 12 0.0 0.0 0.00 0.00 0.00 81 1008.0
20260505035020 12 0.0 0.0 0.00 0.00 0.00 80 1008.1
20260505034019 12 0.0 0.0 0.00 0.00 0.00 79 1008.1
20260505033020 12 0.0 0.0 0.00 0.00 0.00 77 1008.1
20260505032019 12 0.0 0.0 0.00 0.00 0.00 77 1008.1
20260505031019 12 0.0 0.0 0.00 0.00 0.00 76 1008.0
20260505030019 12 0.0 0.0 0.00 0.00 0.00 76 1008.0
20260505025019 12 0.0 0.0 0.00 0.00 0.00 76 1008.0
20260505024020 12 0.0 0.0 0.00 0.00 0.00 75 1008.0
20260505023019 12 0.0 0.0 0.00 0.00 0.00 75 1008.0
20260505022019 12 0.0 0.0 0.00 0.00 0.00 74 1008.0
20260505021019 12 0.0 0.0 0.00 0.00 0.00 74 1008.0
20260505020019 13 0.0 0.0 0.00 0.00 0.00 74 1008.1
20260505015019 13 0.0 0.0 0.00 0.00 0.00 73 1009.2